Stations météo

réclame
Mon MeteoGroup
Castellon, Espagne (8286): Température de l'air & dewpoint: 17.04.2018 04:00:00 - 23.04.2018 04:00:00 (CEST)Castellon, Espagne (8286): Vitesse du vent: 17.04.2018 04:00:00 - 23.04.2018 04:00:00 (CEST)Castellon, Espagne (8286): Direction du vent: 17.04.2018 04:00:00 - 23.04.2018 04:00:00 (CEST)Castellon, Espagne (8286): reduced air pressure: 17.04.2018 04:00:00 - 23.04.2018 04:00:00 (CEST)Castellon, Espagne (8286): visibility: 17.04.2018 04:00:00 - 23.04.2018 04:00:00 (CEST)Castellon, Espagne (8286): Quantités de précipitations: 17.04.2018 04:00:00 - 23.04.2018 04:00:00 (CEST)
Date & Time tt [°C] td [°C] ff [km/h] ff [knt] dd ppp [hPa] vv [km] rr [mm]
23.04.2018 04:00:00 - - - - - - - -
23.04.2018 03:00:00 15,8 9,7 8 4 WNW 1018,9 19 0,0
23.04.2018 02:00:00 15,7 9,6 5 3 WNW 1018,9 20 -
23.04.2018 01:00:00 16,0 10,3 5 3 WNW 1019,0 20 0,0
23.04.2018 00:00:00 16,5 10,3 5 3 WNW 1019,2 20 0,0
22.04.2018 23:00:00 17,5 10,1 4 2 NW 1019,1 20 -
22.04.2018 22:00:00 17,8 9,4 4 2 SW 1018,9 20 0,0
22.04.2018 21:00:00 19,3 10,3 2 1 S 1018,1 20 0,0
22.04.2018 20:00:00 20,5 9,1 4 2 SE 1017,6 20 -
22.04.2018 19:00:00 21,6 9,8 8 4 SSE 1017,3 20 0,0
22.04.2018 18:00:00 22,2 9,4 11 6 ESE 1017,2 20 0,0
22.04.2018 17:00:00 23,7 9,7 11 6 SE 1017,3 20 -
22.04.2018 16:00:00 23,5 9,5 11 6 ESE 1017,6 20 0,0
22.04.2018 15:00:00 24,1 10,0 9 5 SE 1018,2 20 0,0
22.04.2018 14:00:00 22,9 10,7 8 4 SE 1018,3 20 -
22.04.2018 13:00:00 22,2 10,7 11 6 ESE 1018,6 20 0,0
22.04.2018 12:00:00 22,6 11,0 5 3 ESE 1018,8 20 0,0
22.04.2018 11:00:00 20,6 11,5 4 2 SE 1018,9 19 -
22.04.2018 10:00:00 17,8 10,7 4 2 E 1018,3 19 0,0
22.04.2018 09:00:00 15,6 9,5 4 2 NW 1019,0 18 0,0
22.04.2018 08:00:00 13,9 8,7 4 2 NW 1018,3 17 -
22.04.2018 07:00:00 14,3 8,0 5 3 NW 1017,7 20 0,0
22.04.2018 06:00:00 14,4 8,1 9 5 WNW 1017,9 19 0,0
22.04.2018 05:00:00 14,0 8,6 8 4 WNW 1018,2 19 -
22.04.2018 04:00:00 14,1 8,5 8 4 WNW 1018,5 20 0,0
22.04.2018 03:00:00 14,6 8,5 8 4 WNW 1018,9 19 0,0
22.04.2018 02:00:00 15,0 9,1 9 5 WNW 1019,5 20 -
22.04.2018 01:00:00 15,5 9,4 9 5 WNW 1019,8 20 0,0
22.04.2018 00:00:00 15,7 9,6 9 5 WNW 1019,9 20 0,0
21.04.2018 23:00:00 16,3 9,9 5 3 WNW 1020,1 20 -
21.04.2018 22:00:00 16,9 9,1 2 1 SSW 1020,1 20 0,0
21.04.2018 21:00:00 17,5 9,4 0 0 N 1019,7 20 0,0
21.04.2018 20:00:00 18,7 9,5 4 2 SE 1019,5 20 -
21.04.2018 19:00:00 19,4 9,0 4 2 ESE 1019,6 20 0,0
21.04.2018 18:00:00 19,6 9,2 8 4 ESE 1020,0 20 0,0
21.04.2018 17:00:00 19,8 9,1 9 5 ESE 1020,0 20 -
21.04.2018 16:00:00 20,9 9,2 9 5 SE 1020,4 20 0,0
21.04.2018 15:00:00 20,5 9,1 9 5 ESE 1020,8 20 0,0
21.04.2018 14:00:00 21,0 8,9 9 5 E 1020,7 20 -
21.04.2018 13:00:00 21,6 9,2 11 6 ESE 1021,3 20 0,0
21.04.2018 12:00:00 21,9 9,1 8 4 E 1021,5 20 0,0
21.04.2018 11:00:00 21,1 9,7 4 2 SSW 1021,7 20 -
21.04.2018 10:00:00 18,1 9,4 5 3 WNW 1021,2 20 0,0
21.04.2018 09:00:00 15,0 9,6 9 5 WNW 1021,1 16 0,0
21.04.2018 08:00:00 12,4 8,9 9 5 WNW 1020,8 15 -
21.04.2018 07:00:00 12,1 8,8 8 4 WNW 1020,5 15 0,0
21.04.2018 06:00:00 12,6 8,9 5 3 NW 1020,5 15 0,0
21.04.2018 05:00:00 13,1 9,0 9 5 WNW 1021,2 16 -
21.04.2018 04:00:00 13,4 9,1 8 4 WNW 1021,5 16 0,0
21.04.2018 03:00:00 13,5 9,3 5 3 WNW 1021,6 15 0,0
21.04.2018 02:00:00 13,8 9,2 5 3 WNW 1021,9 16 -
21.04.2018 01:00:00 14,7 9,5 8 4 WNW 1021,9 16 0,0
21.04.2018 00:00:00 15,4 10,0 4 2 WNW 1022,1 16 0,0
20.04.2018 23:00:00 16,2 10,1 2 1 ESE 1022,2 19 -
20.04.2018 22:00:00 17,1 10,9 2 1 E 1022,0 20 0,0
20.04.2018 21:00:00 17,7 10,3 4 2 NNE 1021,7 19 0,0
20.04.2018 20:00:00 19,0 9,7 5 3 E 1021,7 15 -
20.04.2018 19:00:00 19,8 9,7 5 3 E 1021,8 19 0,0
20.04.2018 18:00:00 20,0 10,7 8 4 E 1022,0 19 0,0
20.04.2018 17:00:00 20,5 13,0 13 7 ESE 1022,3 18 -
20.04.2018 16:00:00 20,5 12,7 9 5 E 1022,7 19 0,0
20.04.2018 15:00:00 20,4 13,1 13 7 E 1023,0 19 0,0
20.04.2018 14:00:00 20,6 12,6 13 7 E 1023,0 20 -
20.04.2018 13:00:00 20,2 12,9 15 8 E 1023,3 17 0,0
20.04.2018 12:00:00 20,3 11,8 9 5 E 1023,1 17 0,0
20.04.2018 11:00:00 19,4 11,9 11 6 E 1022,9 20 -
20.04.2018 10:00:00 17,7 10,8 4 2 SE 1022,8 20 0,0
20.04.2018 09:00:00 14,3 10,1 9 5 WNW 1022,9 10 0,0
20.04.2018 08:00:00 12,2 9,8 5 3 WNW 1023,0 14 -
20.04.2018 07:00:00 12,0 9,6 4 2 NNW 1022,7 14 0,0
20.04.2018 06:00:00 12,7 9,9 5 3 WNW 1022,8 13 0,0
20.04.2018 05:00:00 12,6 10,0 4 2 WNW 1022,9 13 -
20.04.2018 04:00:00 13,4 10,0 5 3 NW 1023,0 13 0,0
20.04.2018 03:00:00 13,6 10,4 5 3 WNW 1023,4 12 0,0
20.04.2018 02:00:00 14,3 11,1 4 2 WNW 1023,9 12 -
20.04.2018 01:00:00 14,8 11,9 8 4 WSW 1024,2 13 0,0
20.04.2018 00:00:00 15,1 12,0 2 1 NNE 1024,1 16 0,0
19.04.2018 23:00:00 15,7 12,3 4 2 N 1024,3 20 -
19.04.2018 22:00:00 15,9 12,6 4 2 E 1024,2 19 0,0
19.04.2018 21:00:00 16,6 12,7 5 3 E 1023,7 19 0,0
19.04.2018 20:00:00 18,4 12,2 9 5 E 1023,4 20 -
19.04.2018 19:00:00 19,4 11,2 8 4 E 1023,4 20 0,0
19.04.2018 18:00:00 21,1 9,7 9 5 E 1023,4 20 0,0
19.04.2018 17:00:00 21,5 9,4 9 5 ENE 1023,8 19 -
19.04.2018 16:00:00 21,9 9,4 9 5 E 1024,2 20 0,0
19.04.2018 15:00:00 21,8 10,0 9 5 E 1024,5 19 0,0
19.04.2018 14:00:00 21,5 11,2 13 7 E 1024,6 25 -
19.04.2018 13:00:00 20,5 10,0 11 6 E 1025,0 20 0,0
19.04.2018 12:00:00 19,6 12,8 13 7 E 1025,0 18 0,0
19.04.2018 11:00:00 18,3 12,7 9 5 E 1025,1 40 -
19.04.2018 10:00:00 17,1 11,8 11 6 ENE 1024,9 19 0,0
19.04.2018 09:00:00 15,5 9,4 5 3 E 1024,7 17 0,0
19.04.2018 08:00:00 13,2 8,3 8 4 WNW 1024,5 35 -
19.04.2018 07:00:00 12,9 8,4 5 3 WNW 1024,2 19 0,0
19.04.2018 06:00:00 13,3 8,4 11 6 WNW 1024,0 20 0,0
19.04.2018 05:00:00 13,2 9,1 5 3 WNW 1024,2 18 -
19.04.2018 04:00:00 13,6 8,8 4 2 NNW 1024,6 20 0,0
19.04.2018 03:00:00 14,1 9,1 9 5 WNW 1024,7 20 0,0
19.04.2018 02:00:00 14,4 9,4 5 3 WNW 1025,3 20 -
19.04.2018 01:00:00 14,9 9,7 5 3 NNW 1025,6 20 0,0
19.04.2018 00:00:00 16,7 10,8 4 2 NE 1025,7 20 0,0
18.04.2018 23:00:00 17,4 10,5 2 1 E 1025,6 20 -
18.04.2018 22:00:00 18,1 10,5 4 2 ESE 1025,3 19 0,0
18.04.2018 21:00:00 18,8 10,1 2 1 E 1024,7 20 0,0
18.04.2018 20:00:00 20,2 10,3 9 5 ESE 1024,6 20 -
18.04.2018 19:00:00 21,5 9,4 9 5 E 1024,2 20 0,0
18.04.2018 18:00:00 22,3 9,8 8 4 E 1024,4 18 0,0
18.04.2018 17:00:00 22,7 10,2 9 5 E 1024,4 20 -
18.04.2018 16:00:00 23,3 10,7 9 5 E 1024,5 18 0,0
18.04.2018 15:00:00 23,6 9,9 9 5 E 1024,7 19 0,0
18.04.2018 14:00:00 23,6 8,8 8 4 E 1025,0 40 -
18.04.2018 13:00:00 22,7 9,1 8 4 ENE 1025,5 20 0,0
18.04.2018 12:00:00 22,3 9,5 8 4 E 1025,7 17 0,0
18.04.2018 11:00:00 21,2 9,4 8 4 ESE 1025,5 40 -
18.04.2018 10:00:00 18,8 9,0 4 2 SE 1025,4 20 0,0
18.04.2018 09:00:00 16,4 8,4 4 2 NNW 1025,0 20 0,0
18.04.2018 08:00:00 13,7 7,9 11 6 WNW 1024,8 40 -
18.04.2018 07:00:00 13,3 7,7 11 6 WNW 1024,4 20 0,0
18.04.2018 06:00:00 13,3 7,7 8 4 WNW 1024,4 20 0,0
18.04.2018 05:00:00 13,7 7,9 11 6 WNW 1024,4 20 -
18.04.2018 04:00:00 14,0 7,7 15 8 W 1024,4 19 0,0
18.04.2018 03:00:00 14,2 7,7 11 6 WNW 1024,8 20 0,0
18.04.2018 02:00:00 14,5 8,2 13 7 WNW 1025,1 20 -
18.04.2018 01:00:00 14,7 8,6 8 4 WNW 1025,1 20 0,0
18.04.2018 00:00:00 15,4 9,1 5 3 WNW 1025,0 20 0,0
17.04.2018 23:00:00 16,0 10,3 4 2 WNW 1024,9 20 -
17.04.2018 22:00:00 16,8 9,5 4 2 S 1024,6 20 0,0
17.04.2018 21:00:00 17,9 9,8 2 1 S 1023,9 20 0,0
17.04.2018 20:00:00 19,8 9,4 5 3 S 1023,3 20 -
17.04.2018 19:00:00 21,2 8,5 11 6 S 1023,0 20 0,0
17.04.2018 18:00:00 22,7 7,6 13 7 S 1022,5 20 0,0
17.04.2018 17:00:00 23,7 7,7 13 7 S 1022,6 20 -
17.04.2018 16:00:00 23,9 7,9 13 7 S 1022,8 20 0,0
17.04.2018 15:00:00 24,0 8,0 13 7 S 1023,0 20 0,0
17.04.2018 14:00:00 23,6 8,8 13 7 SSE 1023,1 40 -
17.04.2018 13:00:00 23,0 9,4 11 6 SSE 1023,4 20 0,0
17.04.2018 12:00:00 22,6 9,4 11 6 SSE 1023,8 20 0,0
17.04.2018 11:00:00 21,2 7,4 5 3 E 1023,6 40 -
17.04.2018 10:00:00 18,3 7,7 5 3 NW 1023,3 20 0,0
17.04.2018 09:00:00 15,2 7,2 8 4 NW 1023,0 20 0,0
17.04.2018 08:00:00 12,1 7,0 9 5 WNW 1022,4 40 -
17.04.2018 07:00:00 11,8 7,1 11 6 WNW 1021,8 20 0,0
17.04.2018 06:00:00 12,2 7,3 8 4 WNW 1021,4 20 0,0
17.04.2018 05:00:00 12,6 7,5 13 7 WNW 1021,3 20 -
17.04.2018 04:00:00 12,6 8,5 11 6 WNW 1021,2 20 0,0

tt = Température de l'air
td = dewpoint
ff = Vitesse du vent
dd = Direction du vent
ppp = reduced air pressure
vv = visibility
rr = Quantités de précipitations

stations d'obs. à proximité